Regional Weather Roundup
Issued by NWS

Home | Current Version | Previous Version | Graphics & Text | Print | Product List | Glossary On
Versions: 1 2 3 4 5 6 7 8 9 10 11 12 13 14 15 16 17 18 19 20 21 22 23 24 25 26 27
000
ASUS45 KCYS 190010
RWRWY

WYOMING REGIONAL WEATHER ROUNDUP
NATIONAL WEATHER SERVICE CHEYENNE WY
500 PM MST SAT NOV 18 2017

NOTE:  "FAIR" INDICATES FEW OR NO CLOUDS BELOW 12,000 FEET
WITH NO SIGNIFICANT WEATHER AND/OR OBSTRUCTIONS TO VISIBILITY.

WYZ001-190100-
YELLOWSTONE NATIONAL PARK

CITY           SKY/WX    TMP DP  RH WIND       PRES   REMARKS
LK YELLOWSTONE   N/A     17  13  84 VRB6      30.32R WCI   9
6HR MIN TEMP:  -2; 6HR MAX TEMP:  21;

W YELLOWSTONE  NOT AVBL

$$
WYZ002>013-054>058-071-098>099-190100-
NORTHERN WYOMING

CITY           SKY/WX    TMP DP  RH WIND       PRES   REMARKS
JACKSON        FAIR      25  17  72 S12         N/A  WCI  14
CODY           FAIR      37  13  37 W14G20    30.16S WCI  28
GREYBULL       FAIR      37  14  38 S5        30.18S WCI  33
6HR MIN TEMP:  36; 6HR MAX TEMP:  43;

WORLAND        FAIR      29  18  63 SE6       30.18S WCI  23
6HR MIN TEMP:  29; 6HR MAX TEMP:  43;

SHERIDAN       FAIR      26  20  77 SW5       30.14R WCI  20
6HR MIN TEMP:  26; 6HR MAX TEMP:  44;

BUFFALO        FAIR      25  10  53 W5        30.14R WCI  19
6HR MIN TEMP:  23; 6HR MAX TEMP:  34;

GILLETTE       FAIR      26  17  68 W5        30.14S WCI  20
6HR MIN TEMP:  26; 6HR MAX TEMP:  42;

HULETT         FAIR      36  18  48 W7        30.14R WCI  30
NEWCASTLE      FAIR      32  12  43 NW8       30.15S WCI  25

$$
WYZ014>020-022>026-101>103-190100-
CENTRAL WYOMING

CITY           SKY/WX    TMP DP  RH WIND       PRES   REMARKS
BIG PINEY      FAIR      24  13  62 N3        30.32R
6HR MIN TEMP:  19; 6HR MAX TEMP:  29;

PINEDALE       FAIR      23  14  68 W6        30.32R WCI  16
DUBOIS         FAIR      23  12  63 N26G33    30.19S WCI   6
LANDER         FAIR      35   9  33 SW7       30.16R WCI  29
6HR MIN TEMP:  35; 6HR MAX TEMP:  45;

RIVERTON       FAIR      33  17  51 N5        30.18R WCI  29
6HR MIN TEMP:  32; 6HR MAX TEMP:  39;

CASPER         FAIR      30  20  66 SW21      30.18R WCI  17
6HR MIN TEMP:  28; 6HR MAX TEMP:  34;

DOUGLAS        FAIR      30  22  72 W7        30.17R WCI  23
6HR MIN TEMP:  30; 6HR MAX TEMP:  37;


$$
WYZ021-027>030-104>119-190100-
SOUTHERN WYOMING

CITY           SKY/WX    TMP DP  RH WIND       PRES   REMARKS
EVANSTON       FAIR      20  17  88 SW6       30.33F WCI  12
6HR MIN TEMP:  19; 6HR MAX TEMP:  24;

FORT BRIDGER   FAIR      21  15  75 W10       30.36  WCI  10
ROCK SPRINGS   FAIR      22  14  71 SW17      30.34R WCI   8
6HR MIN TEMP:  22; 6HR MAX TEMP:  26;

DIXON          FAIR      24  12  59 SW3       30.38S
RAWLINS        FAIR      24  16  71 W9        30.30R WCI  14
6HR MIN TEMP:  24; 6HR MAX TEMP:  27; 6HR PCP: TRACE;

SARATOGA       FAIR      23  12  63 CALM      30.29S
LARAMIE        FAIR      24  11  57 SW12      30.20R WCI  13
6HR MIN TEMP:  24; 6HR MAX TEMP:  31;

CHEYENNE       FAIR      32  15  49 W14       30.18S WCI  22
6HR MIN TEMP:  32; 6HR MAX TEMP:  39;

TORRINGTON     FAIR      36  19  50 W13       30.18R WCI  27
6HR MIN TEMP:  36; 6HR MAX TEMP:  44;

PINE BLUFFS    FAIR      32  16  51 MISG      30.19S

$$




USA.gov is the U.S. government's official web portal to all federal, state and local government web resources and services.